Flag for India Weather past 2 weeks in Bhinga, Uttar Pradesh, India

Now
86 °F

Broken clouds.


Feels Like: 95 °F
Forecast: 79 / 94 °F
Wind: 7 mph from Southeast

Location: Lucknow / Amausi

Current Time: Jul 24, 2014 at 4:11:47 PM

Latest Report: Jul 24, 2014 at 3:00 PM


Visibility: 3 mi

Pressure: 29.50 "Hg

Humidity: 70%

Dew point: 75 °F

Location of BhingaLocation

Historic Weather in Bhinga — Graph

°F

Bhinga temperature yesterday

Maximum temperature yesterday: 91 °F (at 2:00 PM)
Minimum temperature yesterday: 82 °F (at 6:00 AM)
Average temperature yesterday: 86 °F

Past Weeks' High & Low Weather Summary

 TemperatureHumidityPressure
High102 °F (Jul 21, 12:30 PM)100% (Jul 13, 4:30 PM)29.56 "Hg (Jul 13, 4:30 PM)
Low77 °F (Jul 18, 11:30 AM)57% (Jul 11, 2:30 PM)28.29 "Hg (Jul 14, 5:30 PM)
Average87 °F82%29.44 "Hg
* Reported Jul 9 5:30 PM — Jul 24 2:30 PM, Bhinga, Weather by CustomWeather, © 2014

Note: Actual official high and low records may vary slightly from our data, if they occured in-between our weather recording intervals... More about our weather records

Advertising

Bhinga weather history for previous 24 hours

 ConditionsComfort  
Time TempWeatherWind HumidityBarometerVisibility
2:30 PM
Jul 24
86 °FBroken clouds.7 mph70%29.50 "Hg3 mi
2:00 PM86 °FBroken clouds.6 mph70%29.53 "Hg3 mi
1:30 PM86 °FBroken clouds.9 mph70%29.53 "Hg3 mi
1:00 PM86 °FBroken clouds.9 mph70%29.53 "Hg3 mi
12:30 PM86 °FBroken clouds.7 mph75%29.53 "Hg3 mi
12:00 PM86 °FBroken clouds.9 mph75%29.53 "Hg3 mi
11:30 AM86 °FBroken clouds.9 mph75%29.53 "Hg3 mi
11:00 AM84 °FBroken clouds.9 mph79%29.53 "Hg3 mi
10:30 AM84 °FBroken clouds.8 mph74%29.56 "Hg3 mi
10:00 AM84 °FBroken clouds.8 mph74%29.53 "Hg3 mi
8:30 AM82 °FBroken clouds.9 mph79%29.53 "Hg3 mi
8:00 AM82 °FBroken clouds.9 mph79%29.53 "Hg2 mi
7:30 AM81 °FBroken clouds.9 mph89%29.53 "Hg2 mi
7:00 AM81 °FBroken clouds.No wind89%29.53 "Hg2 mi
6:00 AM79 °FBroken clouds.No wind89%29.50 "Hg2 mi
5:30 AM79 °FPartly cloudy.No wind89%29.47 "Hg2 mi
5:00 AM79 °FPartly cloudy.No wind89%29.47 "Hg2 mi
4:00 AM79 °FPartly cloudy.No wind89%29.47 "Hg2 mi
3:00 AM81 °FPartly cloudy.3 mph84%29.47 "Hg2 mi
1:00 AM81 °FPartly cloudy.7 mph89%29.47 "Hg2 mi
12:00 AM82 °FPartly cloudy.7 mph84%29.50 "Hg2 mi
11:00 PM
Jul 23
82 °FPartly cloudy.5 mph84%29.50 "Hg2 mi
10:00 PM82 °FPartly cloudy.7 mph84%29.50 "Hg2 mi
9:00 PM82 °FPartly cloudy.No wind79%29.50 "Hg3 mi
8:30 PM82 °FPartly cloudy.No wind84%29.47 "Hg3 mi
8:00 PM84 °FPartly cloudy.No wind74%29.47 "Hg3 mi
7:30 PM84 °FPartly cloudy.No wind74%29.45 "Hg3 mi
7:00 PM86 °FBroken clouds.6 mph70%29.45 "Hg3 mi
6:00 PM90 °FBroken clouds.9 mph67%29.42 "Hg3 mi
5:30 PM90 °FScattered clouds.9 mph67%29.42 "Hg3 mi
4:00 PM91 °FScattered clouds.7 mph63%29.42 "Hg3 mi
Weather by CustomWeather, © 2014

See weather overviewHow to use our weather pages